This demonstration page uses our WeatherBlox Daily Observations layout. Learn more.

Left ArrowRight Arrow

Hourly Observations for June 19, 2021

Temp ( °F °C ) Dew Point ( °F °C ) Humidity (%) Winds ( mph kmh ) Pressure ( in mb ) Visibility ( mi km ) Precip ( " mm )
12:51 am 00:51 Mostly Clear 82 27.8 24 -4.4 12 12 VRB 5 7 29.60 1003 10 16 N/A
1:51 am 01:51 Clear 83 28.3 25 -3.9 12 12 E 14 22 29.59 1002 10 16 N/A
2:51 am 02:51 Clear 85 29.4 29 -1.7 13 13 N N/A 29.60 1002 10 16 N/A
3:51 am 03:51 Clear 79 26.1 26 -3.3 14 14 NE 5 7 29.61 1003 10 16 N/A
4:51 am 04:51 Clear 81 27.2 27 -2.8 14 14 S 7 11 29.63 1003 10 16 N/A
5:51 am 05:51 Sunny 86 30 28 -2.2 12 12 SE 9 15 29.64 1004 10 16 N/A
6:51 am 06:51 Sunny 89 31.7 30 -1.1 12 12 SE 8 13 29.65 1004 10 16 N/A
7:51 am 07:51 Sunny 92 33.3 30 -1.1 11 11 SSE 10 17 29.66 1004 10 16 N/A
8:51 am 08:51 Sunny 98 36.7 32 undefined 10 10 E 8 13 29.65 1004 10 16 N/A
9:51 am 09:51 Mostly Sunny 100 37.8 31 -0.6 9 9 SSE 7 11 29.63 1004 10 16 N/A
10:51 am 10:51 Mostly Sunny 101 38.3 33 0.6 9 9 SSE 8 13 29.62 1003 10 16 N/A
11:51 am 11:51 Sunny 104 40 33 0.6 8 8 WSW 6 9 29.60 1002 10 16 N/A
12:51 pm 12:51 Mostly Sunny 106 41.1 33 0.6 8 8 VRB 5 7 29.57 1001 10 16 N/A
1:51 pm 13:51 Cloudy 108 42.2 31 -0.6 7 7 VRB 5 7 29.53 1000 10 16 N/A
2:51 pm 14:51 Cloudy 110 43.3 37 2.8 8 8 WNW 12 19 29.49 999 10 16 N/A
3:51 pm 15:51 Cloudy 110 43.3 36 2.2 8 8 W 7 11 29.48 998 10 16 N/A
4:51 pm 16:51 Cloudy 111 43.9 36 2.2 8 8 NNW 10 17 29.46 998 10 16 N/A
5:36 pm 17:36 Cloudy 108 42.2 40 4.4 10 10 NNE 20 31 29.31 993 10 16 N/A
5:51 pm 17:51 Mostly Cloudy 108 42.2 40 4.4 10 10 NNE 17 28 29.45 997 10 16 N/A
6:51 pm 18:51 Cloudy 106 41.1 39 3.9 10 10 NNW 15 24 29.46 998 10 16 N/A
7:51 pm 19:51 Partly Cloudy 102 38.9 41 5 12 12 NW 14 22 29.49 999 10 16 N/A
8:51 pm 20:51 Partly Cloudy 98 36.7 41 5 14 14 WNW 10 17 29.50 999 10 16 N/A
9:51 pm 21:51 Partly Cloudy 95 35 40 4.4 15 15 NW 10 17 29.53 1000 10 16 N/A
10:51 pm 22:51 Partly Cloudy 94 34.4 39 3.9 15 15 NW 14 22 29.54 1000 10 16 N/A
11:51 pm 23:51 Partly Cloudy 94 34.4 40 4.4 15 15 NNW 12 19 29.54 1001 10 16 N/A

Powered by AerisWeather